Lamoni, IA

3:41 PM CDT on August 28, 2016 (GMT -0500)
Lamoni Municipal

Weather History for KLWD - November, 2012

Change the Weather History Date:

Thursday, November 8, 2012

  Actual Average Record
Temperature  
Mean Temperature 47 °F 44 °F  
Max Temperature 61 °F 53 °F 78 °F (1999)
Min Temperature 33 °F 34 °F -4 °F (1991)
Degree Days  
Heating Degree Days 18 21  
Month to date heating degree days 153 159  
Since 1 July heating degree days 688 643  
Cooling Degree Days 0 0  
Month to date cooling degree days 0 0  
Year to date cooling degree days 1311 946  
Moisture  
Dew Point 34 °F    
Average Humidity 66    
Maximum Humidity 89    
Minimum Humidity 42    
Precipitation  
Precipitation 0.00 in 0.07 in 0.82 in (2011)
Month to date precipitation 0.36 0.84  
Sea Level Pressure  
Sea Level Pressure 30.02 in    
Wind  
Wind Speed 10 mph (SSE)    
Max Wind Speed 17 mph    
Max Gust Speed 23 mph    
Visibility 10 miles    
Events Snow    
T = Trace of Precipitation, MM = Missing Value Source: NWS Daily Summary

Daily Weather History Graph

Daily Weather History Graph

Search for Another Location

Airport or City:

Trip Planner

Search our weather history database for the weather conditions in past years. The results will help you decide how hot, cold, wet, or windy it might be!

Date:

Astronomy

Nov. 08, 2012 Rise Set
Actual Time 6:54 AM CST 5:03 PM CST
Civil Twilight 6:25 AM CST 5:32 PM CST
Nautical Twilight 5:53 AM CST 6:05 PM CST
Astronomical Twilight 5:20 AM CST 6:37 PM CST
Moon 12:48 AM CST (11/8) 1:46 PM CST (11/8)
Length of Visible Light 11h 06m
Length of Day
10h 09m
Waning Crescent, 32% of the Moon is Illuminated
Nov 8
Waning Crescent
Nov 13
New
Nov 20
First Quarter
Nov 28
Full
Dec 6
Last Quarter

Hourly Weather History & Observations

Time (CST) Temp. Windchill Dew Point Humidity Pressure Visibility Wind Dir Wind Speed Gust Speed Precip Events Conditions
12:53 AM 35.1 °F 29.3 °F 30.0 °F 82% 30.14 in 10.0 mi South 6.9 mph - N/A   Clear
1:53 AM 34.0 °F 28.8 °F 30.0 °F 85% 30.13 in 10.0 mi SSE 5.8 mph - N/A   Clear
2:53 AM 34.0 °F 27.2 °F 30.0 °F 85% 30.12 in 10.0 mi South 8.1 mph - N/A   Clear
3:53 AM 33.1 °F 25.5 °F 30.0 °F 89% 30.10 in 9.0 mi SSE 9.2 mph - 0.00 in Snow Light Snow
4:53 AM 33.1 °F 26.9 °F 30.0 °F 89% 30.09 in 10.0 mi SSE 6.9 mph - 0.00 in   Clear
5:53 AM 33.1 °F 25.5 °F 30.0 °F 89% 30.09 in 10.0 mi South 9.2 mph - N/A   Clear
6:53 AM 33.1 °F 24.9 °F 30.0 °F 89% 30.08 in 10.0 mi SSE 10.4 mph - N/A   Clear
7:53 AM 35.1 °F 27.4 °F 30.9 °F 85% 30.09 in 10.0 mi South 10.4 mph - 0.00 in   Clear
8:53 AM 39.9 °F 33.4 °F 34.0 °F 79% 30.09 in 10.0 mi South 10.4 mph - N/A   Clear
9:53 AM 45.0 °F 38.9 °F 35.1 °F 68% 30.07 in 10.0 mi SSE 12.7 mph 20.7 mph N/A   Clear
10:53 AM 50.0 °F - 36.0 °F 59% 30.06 in 10.0 mi SSE 11.5 mph 17.3 mph N/A   Clear
11:53 AM 53.1 °F - 36.0 °F 52% 30.02 in 10.0 mi SSE 11.5 mph 18.4 mph N/A   Clear
12:53 PM 57.0 °F - 36.0 °F 45% 29.98 in 10.0 mi SSE 13.8 mph - N/A   Clear
1:53 PM 59.0 °F - 37.0 °F 44% 29.95 in 10.0 mi SSE 13.8 mph 19.6 mph N/A   Clear
2:53 PM 60.1 °F - 37.0 °F 42% 29.94 in 10.0 mi SSE 13.8 mph 18.4 mph N/A   Clear
3:53 PM 60.1 °F - 37.0 °F 42% 29.93 in 10.0 mi South 11.5 mph 20.7 mph N/A   Clear
4:53 PM 57.0 °F - 37.9 °F 49% 29.93 in 10.0 mi SSE 9.2 mph - N/A   Clear
5:53 PM 54.0 °F - 37.0 °F 53% 29.95 in 10.0 mi SSE 6.9 mph - N/A   Clear
6:53 PM 52.0 °F - 37.0 °F 57% 29.97 in 10.0 mi SSE 6.9 mph - N/A   Clear
7:53 PM 51.1 °F - 37.0 °F 59% 29.97 in 10.0 mi SSE 8.1 mph - N/A   Clear
8:53 PM 51.1 °F - 36.0 °F 56% 29.96 in 10.0 mi SE 9.2 mph - N/A   Clear
9:53 PM 48.9 °F - 36.0 °F 61% 29.95 in 10.0 mi SE 6.9 mph - N/A   Clear
10:53 PM 48.0 °F - 36.0 °F 63% 29.94 in 10.0 mi SSE 9.2 mph - N/A   Clear
11:53 PM 46.9 °F - 36.0 °F 66% 29.94 in 10.0 mi SSE 8.1 mph - N/A   Clear